Regional Weather Roundup
Issued by NWS

Home | Current Version | Previous Version | Text Only | Print | Product List | Glossary Off
Versions: 1 2 3 4 5 6 7 8 9 10 11 12 13 14 15 16 17 18 19 20 21 22 23 24 25 26 27 28 29 30 31 32 33 34 35 36 37 38 39 40 41 42 43 44 45 46 47 48 49 50

000
ASUS43 KOAX 192210
RWRNE

WEATHER ROUNDUP FOR NEBRASKA
NATIONAL WEATHER SERVICE OMAHA NE
400 PM CST FRI DEC 19 2014

NOTES: SATELLITE DATA IS BEING USED TO AUGMENT CLOUD COVER ABOVE
       12000 FEET.
       "FAIR" INDICATES FEW OR NO CLOUDS BELOW 12,000 FEET WITH NO
       SIGNIFICANT WEATHER AND/OR OBSTRUCTIONS TO VISIBILITY.

  * THESE STATIONS DO NOT REPORT WEATHER SUCH AS RAIN...SNOW OR FOG.

NEZ001>004-019>022-054>056-192300-
NEBRASKA PANHANDLE

CITY           SKY/WX    TMP DP  RH WIND       PRES   REMARKS
SCOTTSBLUFF    SUNNY     39  26  59 W12       29.98R WCI  32
ALLIANCE       SUNNY     34  25  69 W9        29.96R WCI  27
CHADRON        SUNNY     43  24  47 CALM      29.96S
KIMBALL        SUNNY     43  19  38 W20G30    29.97S
SIDNEY         SUNNY     42  25  50 NW6       30.00R
$$

NEZ057>060-069>072-079>082-192300-
SOUTHWEST NEBRASKA

CITY           SKY/WX    TMP DP  RH WIND       PRES   REMARKS
NORTH PLATTE   SUNNY     40  27  59 W8        30.01S WCI  34
IMPERIAL       SUNNY     40  29  64 W6        30.02S
LEXINGTON      SUNNY     35  30  80 S8        30.03F WCI  29
MCCOOK         SUNNY     48  28  46 SW8       30.03S
OGALLALA       SUNNY     35  29  79 W9        30.01S WCI  28
$$

NEZ005>010-023>029-035>040-094-192300-
NORTH CENTRAL NEBRASKA

CITY           SKY/WX    TMP DP  RH WIND       PRES   REMARKS
VALENTINE      CLEAR     39  25  57 W7        29.96R WCI  34
AINSWORTH      CLEAR     31  27  82 S5        29.97R WCI  27
BROKEN BOW     CLEAR     36  30  79 S9        30.00S WCI  29
O`NEILL        CLOUDY    29  29 100 S8        30.02S FOG     WCI  21
THEDFORD       CLEAR     42  30  64 SW6       29.97R
$$

NEZ041-046>049-061>064-073>077-083>087-192300-
SOUTH CENTRAL NEBRASKA

CITY           SKY/WX    TMP DP  RH WIND       PRES   REMARKS
GRAND ISLAND   CLOUDY    35  30  82 SW12      30.07F WCI  27
AURORA         CLOUDY    34  32  91 S12       30.08S WCI  25
HASTINGS       CLOUDY    36  30  79 S8        30.06S WCI  30
HEBRON         CLOUDY    34  30  86 S6        30.12S FOG     WCI  29
HOLDREGE       SUNNY     32  31  96 SW3       30.05R
KEARNEY *      CLOUDY    30  28  93 S10       30.05S WCI  21
YORK           CLOUDY    32  32 100 S9        30.10S FOG     WCI  24
$$

NEZ011>018-030>034-042>045-192300-
NORTHEAST NEBRASKA

CITY           SKY/WX    TMP DP  RH WIND       PRES   REMARKS
NORFOLK        CLOUDY    33  28  81 S13       30.08R WCI  24
ALBION         CLOUDY    31  28  88 SW9       30.07R FOG     WCI  23
BLAIR          CLOUDY    33  30  88 S10       30.13F WCI  25
COLUMBUS *     CLOUDY    34  27  75 S10       30.11S WCI  26
FREMONT        CLOUDY    34  29  83 SE9       30.13F WCI  27
TEKAMAH        CLOUDY    34  28  79 S12       30.15S WCI  25
WAYNE          CLOUDY    32  29  88 S13       30.11R WCI  22
$$

NEZ050>053-065>068-078-088>093-192300-
SOUTHEAST NEBRASKA

CITY           SKY/WX    TMP DP  RH WIND       PRES   REMARKS
LINCOLN        CLOUDY    34  30  85 S9        30.15S WCI  27
OMAHA EPPLEY   DRIZZLE   32  29  88 S13       30.18S WCI  22
BEATRICE       CLOUDY    32  31  94 S7        30.15S FOG     WCI  26
FALLS CITY     CLOUDY    31  27  85 S8        30.19S WCI  23
NEBRASKA CITY  CLOUDY    31  30  97 S7        30.18R FOG     WCI  24
PLATTSMOUTH    CLOUDY    31  29  91 S7        30.16F FOG     WCI  24
$$

NEZ044-045-051>053-067-192300-
OMAHA AREA

CITY           SKY/WX    TMP DP  RH WIND       PRES   REMARKS
OMAHA EPPLEY   DRIZZLE   32  29  88 S13       30.18S WCI  22
BLAIR          CLOUDY    33  30  88 S10       30.13F WCI  25
FREMONT        CLOUDY    34  29  83 SE9       30.13F WCI  27
MILLARD        CLOUDY    33  30  86 S6        30.16S WCI  28
OFFUTT AFB     CLOUDY    32  29  90 S8        30.17S WCI  25
PLATTSMOUTH    CLOUDY    31  29  91 S7        30.16F FOG     WCI  24
WAHOO          CLOUDY    33  29  83 S7        30.13F WCI  27
$$



USA.gov is the U.S. government's official web portal to all federal, state and local government web resources and services.